Starlink 32376

operational
NORAD ID: 61707 Int'l Des: 2024-196 Owner: SPXS Country: US Constellation: starlink
LEOCIRCULAR

关于 Starlink 32376

正在加载描述...

实时位置

正在加载3D地球...

即将过境

高度历史

Altitude vs Time

uPlot chart will show altitude changes over time

两行轨道根数

1 61707U 24196A 25259.11909782 -.00001967 00000-0 -54342-4 0 9990
2 61707 53.1597 191.8797 0000836 98.1952 261.9144 15.30183595 50446
Epoch: Sep 16, 2025 • Age: 16 hours

当前状态

高度 484.7 km
速度 7.62 km/s
星下点 -29.53°S, 107.57°W
发射日期 Oct 30, 2024
运行时间 0.8 years
类型 internet

技术详情

分类 Payload
质量 730.00 kg
干质量 700.00 kg
总质量 730.00 kg
长度 0.30 m
直径 4.10 m
跨度 29.00 m
形状 Box + pan
制造商 SPXS
平台类型 Starlink V2M
阶段状态 In Orbit
所有者/国家 SPXS/US

大型星座

Loading constellations...